Location: Fensholt
(55.9856°N, 10.0808°E)
Time: 15:53:13
(UTC+00:00)

NOSS 2-1 (D) - Pass Details

Date: 07 June 2020
Orbit: 449 x 1754 km, 63.3° (Epoch: 25 June)

Event Time Altitude Azimuth Distance (km) Brightness Sun altitude
Exits shadow 01:16:56 - 189° (S) 1,678 5.2 -7.3°
Reaches altitude 10° 01:17:12 10° 187° (S) 1,579 5.1 -7.3°
Maximum altitude 01:20:10 28° 126° (SE) 908 4.4 -7.1°
Drops below altitude 10° 01:23:24 10° 65° (ENE) 1,745 6.8 -6.9°
Sets 01:25:58 0° 54° (NE) 2,773 8.3 -6.7°
